World > North America > United States > North Dakota

Golva, North Dakota Regional Weather

Lat: 46.73N, Lon: 103.99W
Wx Zone: NDZ031
Warning NWS WEATHER ALERT - (More Info. Click Here) Warning
Feedback

Golva, ND Regional Weather

Expires:201909171100;;919034
ASUS43 KBIS 171010
RWRND 

NORTH DAKOTA REGIONAL WEATHER ROUNDUP
NATIONAL WEATHER SERVICE BISMARCK ND
500 AM CDT TUE SEP 17 2019

NOTE: "FAIR" INDICATES FEW OR NO CLOUDS BELOW 12,000 FEET WITH NO
SIGNIFICANT WEATHER AND/OR OBSTRUCTIONS TO VISIBILITY.



NDZ018>021-031>035-040>046-171100-
SOUTHWEST NORTH DAKOTA
  
CITY           SKY/WX    TMP DP  RH WIND       PRES   REMARKS
BISMARCK       CLEAR     66  64  93 SE7       29.65R                  
DICKINSON      CLEAR     60  57  89 S10       29.60F                  
GARRISON         N/A     63  63 100 E3        29.62S                  
HETTINGER ARPT CLEAR     53  53 100 CALM      29.66S                  
$$
 

SKY/WX - Weather  TMP - Temperature  DP - Dew Point  RH - Relative Humidity
WIND - Wind Direction/Speed PRES - Barometric Pressure VSB - Visibility
WCI - Wind Chill Index E13G22 Wind - East Wind 13 mph/Gusts of 22 mph